TECHNOSAT (42829 NORAD) Tracking and Keplerian Element Data

This shows tracking and keplerian element data for the satellite.

Feedback or suggestion? Click here.




ElementValue
Catalog42829
NameTECHNOSAT
Epoch Orbit7729
Epoch Day349.17697479
Epoch Year2018
RAAN244.5346
Inclination97.5817
Eccentricity0.0013326
Argument of Perigee322.8136
Mean Anonmoly37.2159
Mean Motion14.90899981
Decay Rate1.26E-06
L11 42829U 17042E 18349.17697479 .00000126 00000-0 18159-4 0 9991
L22 42829 97.5817 244.5346 0013326 322.8136 37.2159 14.90899981 77292

Live tracking and technical data element details for TECHNOSAT (NORAD 42829). TECHNOSAT can be tracked NOW for your location showing map with azimuth and elevation plus other details from your city location.

Track the satellite on the map from your city or location and see movement details for azimuth, elevation, latitude, longitude, range, height, and movement on the map or in text.







IsCatalogInMostPopularTable: catalog: 42829, numindb: 180
Update: records affected: 1



GetName: 42829 TECHNOSAT

Hit Count: updated at: Sat, 15 Dec 2018 13:30:54 GMT